Temp
-5 -5 -5 -6 -6 -7 -8 -8 -8 -8 -8 -9 -10 -11 -11 -12 -13 -13 -13 -13 -13 -14 -14 -14 -13 -13 -13 -14 -14 -14 -14 -15 -14 -12 -13 -13 -13 -13 -13 -12 -11 -12 -12
-5 -5 -6 -7 -8 -8 -8 -8 -8 -9 -9 -10 -11 -12 -13 -13 -13 -14 -14 -14 -14 -14 -14 -15 -15 -15 -15 -15 -15 -14 -14 -15 -15 -15 -15 -14 -14 -13 -13 -13 -13 -13 -13
-6 -7 -7 -7 -7 -8 -9 -9 -9 -11 -11 -12 -13 -14 -14 -14 -15 -16 -16 -16 -16 -16 -16 -16 -16 -16 -16 -16 -16 -16 -16 -16 -16 -16 -15 -15 -14 -14 -14 -14 -13 -13 -13
-8 -8 -8 -9 -9 -9 -10 -11 -12 -12 -13 -14 -14 -15 -16 -17 -17 -17 -17 -16 -16 -16 -16 -16 -17 -17 -17 -17 -17 -17 -17 -17 -17 -16 -15 -15 -15 -15 -14 -14 -14 -14 -14
-8 -8 -9 -10 -10 -10 -11 -12 -13 -14 -15 -15 -16 -16 -17 -17 -17 -17 -16 -16 -16 -17 -17 -17 -17 -17 -17 -17 -17 -17 -17 -17 -17 -17 -16 -16 -15 -15 -16 -16 -16 -15 -15
-9 -9 -10 -10 -10 -12 -12 -13 -13 -15 -15 -16 -16 -17 -17 -17 -17 -17 -16 -17 -17 -17 -17 -17 -17 -18 -18 -18 -19 -18 -18 -18 -17 -16 -16 -16 -15 -15 -15 -15 -15 -15 -15
-10 -10 -10 -10 -11 -11 -12 -13 -14 -15 -15 -16 -17 -17 -17 -17 -17 -17 -17 -18 -18 -18 -18 -18 -18 -18 -18 -18 -19 -19 -18 -17 -17 -16 -16 -16 -16 -16 -16 -16 -16 -16 -16
-11 -11 -11 -11 -11 -12 -12 -14 -14 -15 -16 -16 -17 -17 -17 -17 -17 -18 -18 -18 -18 -18 -18 -18 -18 -18 -18 -19 -19 -18 -18 -18 -17 -17 -17 -16 -16 -16 -16 -16 -16 -16 -16
-12 -12 -11 -11 -13 -13 -12 -14 -15 -15 -16 -17 -17 -17 -17 -17 -17 -17 -17 -18 -18 -18 -19 -19 -19 -19 -19 -19 -19 -18 -18 -18 -18 -18 -17 -17 -16 -16 -16 -16 -16 -16 -15
-12 -12 -12 -12 -13 -13 -13 -14 -15 -16 -17 -17 -17 -17 -17 -17 -17 -18 -18 -19 -19 -19 -19 -19 -20 -20 -19 -20 -19 -19 -18 -18 -17 -17 -17 -17 -17 -17 -17 -17 -16 -16 -16
-13 -13 -13 -13 -14 -14 -15 -15 -16 -16 -17 -16 -17 -17 -17 -17 -18 -18 -18 -19 -19 -19 -19 -19 -20 -20 -20 -20 -20 -19 -19 -18 -18 -18 -17 -17 -17 -17 -16 -16 -17 -17 -16
-13 -13 -14 -14 -14 -14 -15 -15 -16 -17 -15 -17 -17 -17 -17 -17 -18 -18 -19 -19 -19 -19 -19 -19 -19 -20 -20 -20 -19 -19 -19 -18 -18 -18 -17 -17 -17 -17 -17 -17 -16 -17 -16
-13 -14 -14 -14 -15 -15 -16 -16 -15 -15 -16 -17 -17 -16 -17 -17 -18 -18 -18 -18 -19 -19 -19 -19 -19 -19 -19 -19 -19 -19 -19 -18 -18 -18 -18 -18 -18 -18 -17 -17 -17 -17 -17
-13 -14 -14 -14 -15 -16 -15 -16 -15 -16 -17 -17 -17 -17 -17 -17 -17 -18 -18 -18 -18 -18 -19 -19 -19 -19 -19 -19 -19 -19 -19 -18 -18 -18 -18 -18 -18 -17 -17 -17 -17 -17 -17
-13 -14 -14 -15 -15 -15 -15 -15 -15 -16 -16 -16 -17 -17 -17 -17 -17 -18 -17 -17 -18 -18 -18 -18 -18 -18 -18 -18 -19 -18 -18 -18 -18 -18 -18 -18 -18 -17 -17 -17 -17 -17 -17
-14 -14 -15 -15 -15 -15 -15 -15 -16 -16 -16 -17 -17 -17 -17 -17 -17 -17 -18 -18 -18 -18 -18 -18 -18 -18 -18 -18 -18 -18 -18 -18 -18 -18 -18 -18 -17 -17 -17 -17 -17 -17 -17
-14 -15 -15 -15 -15 -15 -15 -15 -16 -16 -16 -17 -17 -17 -17 -17 -17 -17 -18 -17 -17 -17 -18 -18 -18 -18 -18 -18 -17 -17 -17 -17 -17 -17 -17 -17 -18 -17 -17 -17 -17 -17 -16
-15 -15 -15 -15 -15 -15 -16 -16 -16 -16 -17 -17 -17 -17 -17 -17 -17 -17 -18 -18 -17 -17 -17 -18 -18 -18 -17 -17 -17 -17 -17 -17 -17 -17 -17 -17 -17 -17 -17 -17 -17 -17 -16
-15 -15 -15 -15 -15 -16 -16 -16 -16 -16 -17 -17 -17 -17 -17 -18 -17 -17 -17 -18 -18 -17 -18 -18 -18 -18 -18 -17 -17 -17 -17 -17 -17 -17 -16 -16 -16 -17 -17 -17 -16 -17 -16
-15 -15 -15 -15 -16 -16 -16 -16 -16 -17 -17 -17 -17 -17 -17 -17 -18 -18 -18 -18 -18 -18 -18 -18 -18 -18 -18 -17 -17 -17 -17 -17 -17 -17 -16 -16 -16 -16 -16 -16 -16 -16 -16
-15 -16 -15 -16 -16 -16 -16 -16 -16 -17 -17 -17 -17 -17 -18 -18 -18 -18 -18 -18 -18 -18 -18 -18 -19 -19 -19 -18 -17 -17 -17 -17 -17 -17 -16 -16 -16 -16 -16 -16 -16 -16 -16
-16 -16 -16 -15 -16 -16 -16 -16 -17 -17 -17 -17 -17 -18 -18 -18 -18 -18 -18 -18 -18 -18 -18 -19 -19 -19 -19 -19 -18 -18 -17 -17 -17 -17 -17 -17 -16 -16 -16 -16 -16 -16 -16
-16 -16 -16 -16 -16 -16 -16 -16 -17 -17 -17 -17 -18 -18 -18 -18 -18 -18 -18 -18 -19 -19 -19 -19 -19 -19 -19 -19 -19 -19 -18 -18 -18 -17 -17 -17 -17 -17 -16 -16 -16 -16 -16
-16 -16 -16 -16 -16 -16 -16 -17 -17 -17 -17 -17 -18 -18 -18 -18 -18 -18 -19 -19 -19 -19 -19 -19 -19 -19 -19 -19 -19 -19 -19 -19 -18 -18 -18 -17 -17 -17 -17 -17 -17 -17 -17
-16 -16 -16 -16 -16 -16 -17 -17 -17 -17 -17 -17 -18 -18 -18 -18 -18 -18 -19 -19 -19 -19 -19 -19 -19 -19 -19 -19 -19 -19 -19 -19 -19 -19 -18 -18 -18 -18 -17 -17 -17 -17 -17
-16 -16 -16 -16 -16 -16 -17 -17 -17 -17 -17 -18 -18 -18 -18 -18 -18 -19 -19 -19 -19 -20 -19 -19 -20 -20 -20 -20 -20 -20 -19 -19 -19 -19 -19 -19 -18 -18 -18 -18 -18 -17 -17
Height
3092 3086 3080 3072 3065 3061 3055 3049 3044 3039 3033 3026 3019 3013 3006 3000 2995 2990 2987 2983 2979 2977 2975 2973 2971 2970 2967 2966 2964 2962 2960 2959 2956 2955 2956 2958 2959 2960 2962 2962 2962 2965 2967
3082 3075 3069 3062 3056 3053 3047 3040 3034 3028 3021 3013 3005 3001 2996 2991 2987 2983 2979 2974 2971 2968 2966 2963 2961 2959 2957 2956 2954 2952 2951 2950 2949 2946 2947 2947 2950 2952 2952 2954 2956 2958 2960
3070 3064 3060 3053 3049 3043 3036 3029 3023 3016 3009 3004 2998 2993 2988 2984 2979 2974 2970 2966 2962 2959 2957 2954 2951 2949 2947 2944 2943 2941 2940 2939 2938 2936 2935 2938 2939 2942 2943 2945 2947 2948 2950
3061 3054 3051 3044 3038 3034 3027 3021 3015 3009 3002 2996 2990 2986 2981 2977 2972 2966 2962 2959 2955 2951 2947 2944 2941 2939 2937 2934 2932 2930 2929 2928 2928 2928 2927 2928 2930 2932 2934 2936 2937 2940 2942
3058 3049 3045 3036 3028 3023 3018 3013 3007 3001 2995 2990 2985 2980 2975 2971 2964 2959 2955 2950 2945 2940 2936 2933 2930 2928 2926 2923 2922 2920 2918 2917 2917 2917 2917 2918 2920 2923 2925 2925 2926 2927 2929
3051 3044 3037 3029 3017 3013 3010 3005 3000 2994 2989 2984 2979 2974 2969 2963 2957 2951 2946 2941 2935 2928 2923 2919 2917 2914 2913 2911 2909 2908 2907 2905 2905 2906 2907 2907 2909 2912 2914 2915 2916 2918 2919
3043 3036 3027 3021 3015 3009 3004 3000 2993 2988 2984 2979 2973 2967 2962 2957 2949 2941 2935 2929 2922 2917 2911 2906 2903 2901 2900 2898 2897 2896 2895 2895 2896 2897 2896 2898 2898 2902 2903 2904 2906 2907 2908
3035 3028 3018 3012 3005 3001 2996 2992 2987 2983 2978 2973 2967 2961 2956 2950 2942 2933 2925 2919 2912 2906 2901 2896 2893 2890 2888 2887 2885 2885 2886 2886 2886 2885 2885 2889 2888 2890 2891 2893 2893 2894 2896
3026 3017 3010 3003 2998 2997 2988 2986 2982 2977 2972 2965 2961 2956 2949 2941 2933 2923 2916 2909 2901 2896 2891 2887 2883 2880 2878 2877 2875 2875 2876 2877 2877 2877 2877 2878 2878 2880 2881 2881 2882 2883 2884
3013 3009 3001 2997 2991 2987 2983 2980 2976 2971 2965 2959 2955 2950 2942 2933 2924 2915 2908 2900 2893 2887 2883 2879 2875 2871 2869 2869 2868 2867 2867 2867 2868 2868 2869 2870 2870 2871 2872 2873 2874 2874 2876
3005 3001 2996 2991 2985 2983 2979 2975 2971 2965 2960 2953 2949 2943 2935 2925 2917 2908 2901 2893 2886 2880 2876 2872 2870 2866 2864 2863 2861 2860 2859 2860 2861 2860 2861 2862 2863 2863 2864 2865 2865 2866 2868
2999 2993 2987 2984 2981 2976 2973 2969 2965 2960 2953 2948 2943 2937 2928 2920 2912 2903 2896 2889 2883 2876 2871 2867 2864 2862 2859 2857 2855 2854 2853 2853 2854 2854 2855 2856 2857 2857 2857 2858 2859 2861 2862
2991 2985 2981 2977 2974 2970 2968 2963 2958 2952 2948 2943 2938 2930 2923 2916 2907 2899 2892 2886 2880 2874 2869 2864 2860 2858 2855 2853 2851 2849 2848 2848 2849 2850 2851 2852 2854 2854 2855 2855 2856 2857 2857
2984 2978 2974 2971 2967 2964 2962 2957 2953 2948 2944 2939 2933 2926 2919 2912 2903 2895 2889 2884 2878 2872 2867 2863 2859 2856 2854 2851 2848 2846 2845 2846 2847 2848 2849 2851 2852 2853 2853 2854 2854 2854 2853
2977 2972 2968 2965 2962 2959 2956 2952 2948 2944 2940 2934 2929 2922 2915 2908 2900 2891 2885 2881 2876 2871 2867 2863 2859 2856 2853 2851 2848 2846 2846 2846 2846 2847 2848 2849 2850 2851 2852 2852 2852 2851 2850
2971 2967 2963 2960 2957 2955 2952 2948 2944 2940 2936 2932 2927 2921 2914 2906 2898 2891 2885 2881 2876 2872 2868 2864 2860 2857 2854 2851 2849 2848 2846 2845 2845 2845 2846 2847 2848 2849 2850 2850 2850 2849 2849
2966 2962 2959 2956 2953 2951 2948 2944 2940 2936 2932 2929 2924 2918 2912 2905 2897 2890 2884 2880 2876 2872 2868 2865 2862 2859 2856 2854 2852 2850 2848 2846 2844 2843 2844 2845 2846 2847 2848 2848 2849 2848 2848
2961 2958 2955 2952 2949 2947 2944 2940 2936 2932 2929 2924 2920 2915 2910 2903 2897 2891 2884 2879 2876 2872 2869 2866 2863 2861 2859 2857 2855 2852 2851 2848 2846 2844 2843 2844 2845 2845 2846 2846 2847 2847 2847
2955 2954 2951 2948 2945 2943 2940 2937 2933 2930 2926 2922 2918 2913 2908 2903 2897 2891 2884 2879 2875 2872 2869 2866 2864 2862 2861 2859 2857 2854 2852 2850 2848 2845 2843 2843 2843 2844 2844 2844 2845 2845 2845
2951 2948 2946 2943 2941 2939 2936 2933 2930 2927 2923 2920 2916 2912 2907 2902 2897 2891 2885 2880 2875 2871 2869 2866 2864 2862 2861 2860 2857 2855 2853 2851 2849 2847 2845 2844 2843 2843 2843 2843 2843 2842 2842
2947 2944 2942 2939 2937 2935 2932 2929 2927 2924 2920 2917 2913 2909 2904 2900 2895 2890 2885 2881 2876 2872 2868 2866 2864 2862 2861 2859 2858 2856 2854 2852 2850 2848 2846 2845 2844 2843 2842 2841 2841 2840 2839
2943 2940 2938 2935 2933 2930 2928 2926 2923 2920 2917 2914 2910 2906 2902 2897 2893 2888 2885 2880 2876 2872 2868 2865 2863 2861 2860 2859 2857 2855 2853 2851 2849 2848 2846 2845 2844 2843 2841 2840 2840 2839 2838
2938 2936 2933 2931 2929 2927 2925 2922 2920 2917 2914 2911 2907 2903 2899 2894 2890 2887 2883 2879 2876 2872 2868 2865 2862 2860 2858 2856 2855 2854 2852 2850 2849 2847 2846 2845 2843 2842 2840 2839 2838 2837 2836
2934 2931 2929 2927 2925 2922 2921 2919 2917 2914 2911 2908 2904 2900 2896 2892 2888 2884 2881 2877 2874 2871 2868 2864 2861 2859 2856 2855 2853 2851 2850 2849 2847 2846 2844 2843 2841 2840 2839 2837 2836 2835 2834
2930 2927 2925 2923 2921 2919 2917 2915 2913 2910 2907 2904 2901 2897 2893 2889 2885 2881 2878 2874 2871 2868 2865 2863 2860 2857 2855 2852 2851 2849 2847 2846 2845 2844 2842 2841 2839 2838 2836 2835 2834 2832 2831
2925 2923 2920 2918 2917 2915 2913 2911 2909 2907 2904 2901 2897 2894 2891 2887 2883 2879 2875 2871 2868 2865 2863 2860 2857 2855 2852 2850 2848 2846 2844 2843 2841 2840 2839 2838 2836 2835 2834 2832 2831 2829 2828
Wind_Speed
49 49 48 43 43 43 44 48 49 51 52 50 47 43 39 37 33 32 32 30 31 31 28 28 29 29 29 28 28 30 29 27 33 33 29 24 23 18 17 21 25 27 29
47 47 39 39 40 41 44 47 49 51 49 47 46 44 39 36 33 31 33 35 38 39 35 26 29 32 35 36 35 32 31 36 33 33 32 32 29 29 27 23 22 23 26
43 42 39 39 42 42 43 49 49 46 46 43 41 37 34 33 33 32 32 32 34 36 34 36 37 33 36 34 35 40 42 37 34 35 36 34 33 29 33 34 31 30 30
39 35 42 46 50 47 47 42 44 45 44 41 35 32 33 32 33 34 34 35 36 36 36 35 34 35 33 33 34 33 33 35 35 37 38 36 32 30 29 30 34 36 37
33 34 49 51 48 52 45 44 47 44 41 38 35 33 32 32 32 35 37 37 37 39 39 38 36 34 34 39 39 37 43 39 38 39 38 37 35 31 27 24 25 25 29
40 51 50 43 34 40 37 41 42 38 38 37 36 36 34 35 37 42 42 41 42 42 43 40 38 36 34 32 35 38 40 40 35 34 35 36 35 34 34 34 36 37 37
43 46 47 41 42 36 46 47 39 32 37 39 36 36 39 40 41 45 45 44 45 43 41 39 36 34 34 33 35 38 37 36 32 28 30 31 33 32 33 35 36 40 43
35 40 48 50 45 38 45 37 32 32 38 36 37 39 43 40 42 44 46 42 39 38 36 33 31 29 29 31 33 34 33 32 32 32 32 28 31 30 33 34 37 40 41
35 42 44 47 24 41 38 36 32 35 36 38 39 40 39 41 43 43 41 38 37 36 33 30 27 26 25 26 29 30 30 29 30 31 30 29 29 29 30 32 33 34 35
37 42 43 36 29 44 38 32 30 35 37 39 41 33 38 41 40 40 39 38 37 34 29 24 21 22 21 20 22 23 25 25 26 26 25 26 26 26 26 28 30 31 30
43 43 38 32 35 42 31 28 35 34 39 37 33 35 40 39 39 39 38 36 33 30 29 25 20 18 21 20 21 22 23 23 22 23 22 21 22 23 23 24 26 26 24
37 35 32 31 35 34 26 32 34 36 34 31 33 37 39 37 37 38 35 30 28 30 28 24 21 20 19 20 20 20 20 19 18 17 15 13 12 12 11 12 15 18 20
38 34 29 29 29 26 29 30 30 32 29 30 32 37 37 36 37 35 29 25 25 25 24 21 20 17 15 15 15 16 14 12 10 8 7 7 6 5 4 4 6 10 14
37 32 30 27 25 25 25 27 29 28 27 28 32 36 36 35 37 31 25 23 23 23 20 18 15 13 13 13 11 7 4 5 5 7 7 7 6 5 5 7 7 10 13
33 30 27 23 21 22 22 24 26 26 26 28 30 33 36 34 36 30 25 23 23 21 19 16 14 13 12 11 11 6 3 4 6 7 8 8 8 6 5 6 7 7 9
32 28 22 21 22 19 20 22 25 25 24 26 27 29 32 32 34 29 23 21 20 19 17 16 15 14 13 13 13 12 8 5 5 7 8 9 8 7 5 6 5 2 4
28 23 21 21 20 19 20 22 24 24 24 25 26 27 30 31 34 30 23 19 18 17 16 15 13 10 13 14 12 10 9 8 5 5 7 8 7 8 6 5 5 3 3
24 21 22 20 19 19 20 22 23 23 23 25 27 27 29 32 32 31 24 19 18 17 16 14 11 10 12 11 10 10 8 8 8 6 3 6 7 7 6 5 5 5 5
24 20 20 19 19 19 20 21 21 21 21 23 25 27 28 29 31 31 27 21 18 17 15 13 7 8 10 11 11 11 10 9 8 9 7 2 7 7 5 4 5 7 7
22 21 20 20 19 18 19 20 20 20 21 23 25 26 26 26 28 28 28 24 20 17 15 13 8 5 9 10 10 10 10 10 9 9 8 7 2 4 6 7 8 9 10
20 21 20 19 18 18 18 19 19 20 21 23 25 25 25 25 25 26 27 25 23 19 16 13 11 9 8 9 10 9 9 9 8 8 8 7 6 5 4 5 6 7 9
20 20 20 18 17 17 17 17 18 19 21 23 24 25 24 24 23 24 25 25 23 21 18 15 12 10 9 8 9 9 9 9 8 8 7 7 6 6 5 5 6 6 6
20 20 19 18 17 16 15 15 16 18 20 22 23 23 24 25 24 22 22 23 23 21 19 17 14 13 12 10 8 8 9 9 8 7 7 7 8 7 7 7 7 7 7
21 20 18 17 16 15 13 14 16 18 19 21 22 23 23 24 24 24 21 21 22 21 19 17 16 14 13 12 11 9 8 9 9 9 8 8 8 8 8 8 8 8 8
20 20 18 17 15 13 13 14 16 18 19 21 21 22 22 23 24 24 23 21 20 21 20 18 16 15 14 13 12 12 12 11 10 10 10 10 10 9 9 9 9 9 9
20 21 19 17 15 14 14 15 16 17 18 20 20 20 21 22 23 24 25 23 21 20 19 19 18 16 15 14 13 13 13 13 12 11 11 11 11 10 10 10 11 11 11
Wind_Direction
305 302 300 300 301 306 307 306 308 311 310 310 312 314 311 307 301 295 292 290 283 287 291 285 280 276 270 273 271 278 277 279 284 284 282 271 261 251 253 238 211 230 242
301 297 299 299 299 304 305 306 307 309 313 319 323 321 315 308 305 297 293 292 290 286 292 293 290 277 268 269 273 265 263 270 272 276 271 269 260 252 245 238 244 257 260
310 307 304 299 305 309 310 310 313 319 322 320 317 314 313 310 309 308 304 299 296 302 298 291 288 284 289 291 283 269 268 264 256 261 266 268 270 262 252 245 242 242 242
316 309 317 312 309 313 311 315 319 319 319 320 315 311 310 308 306 301 303 303 302 298 295 293 287 284 276 279 280 283 277 270 266 264 267 270 271 268 264 260 254 251 252
299 295 314 310 310 315 317 320 320 318 318 318 316 312 309 307 304 301 306 306 304 300 297 294 290 284 277 272 272 270 273 275 269 265 267 270 271 269 262 255 259 257 250
309 308 311 301 291 298 304 317 312 309 313 313 315 316 313 309 308 307 310 309 305 301 299 297 292 287 281 271 265 267 269 275 276 269 268 268 268 268 265 259 249 250 251
306 305 305 296 299 298 311 314 305 298 312 314 315 312 313 317 313 310 311 309 305 303 300 298 295 287 279 271 261 261 268 275 276 273 271 269 268 265 262 259 259 261 258
299 304 298 312 296 320 314 315 296 307 311 313 310 312 316 313 312 308 309 309 308 306 304 301 297 292 284 278 274 271 268 271 272 273 273 273 267 262 258 257 256 255 257
308 298 294 304 300 320 321 309 299 305 311 307 309 311 313 316 315 314 318 317 313 311 308 304 300 291 282 277 275 275 274 271 268 268 270 269 267 265 263 262 261 264 265
299 301 310 302 299 321 316 303 300 309 302 306 312 319 321 320 322 323 322 322 318 317 320 316 309 296 287 280 278 276 274 271 270 270 270 270 269 267 267 266 267 265 267
307 308 307 297 316 314 309 295 302 305 305 314 326 327 326 328 329 325 328 324 323 323 323 321 312 297 296 293 289 284 279 275 274 273 271 269 269 268 265 261 260 262 261
318 314 310 304 304 307 289 300 308 303 314 328 325 327 332 331 330 327 328 327 327 325 324 323 318 310 304 299 294 288 282 278 274 270 268 265 270 270 269 265 258 259 264
322 319 315 312 311 293 298 305 310 316 327 323 327 332 334 333 332 332 330 331 331 330 330 328 324 323 319 313 304 295 287 276 264 258 259 261 264 263 265 272 281 280 277
321 319 312 308 304 304 311 313 317 325 326 326 333 334 335 336 338 338 337 336 338 341 341 339 338 336 332 332 332 317 277 253 255 252 252 248 242 244 257 268 276 279 278
321 319 314 313 311 314 316 317 325 327 328 332 336 336 337 341 345 343 342 342 346 351 353 352 353 352 355 359 16 11 324 277 266 255 243 238 234 249 259 278 290 304 302
321 317 316 316 314 317 318 323 327 327 329 333 336 339 344 344 349 346 343 343 346 352 355 358 1 5 8 10 17 14 0 307 270 252 239 233 237 234 240 274 286 307 9
318 315 316 315 316 319 322 327 330 332 332 335 341 344 346 351 354 351 345 344 345 351 354 356 358 14 26 20 9 7 7 11 360 259 238 232 223 238 251 270 261 275 309
315 313 315 315 316 316 322 328 331 332 334 339 345 346 348 354 356 353 349 347 348 347 351 354 357 34 13 8 8 7 3 6 18 16 248 229 229 237 249 260 263 266 273
310 315 313 315 316 314 320 326 330 333 334 338 343 344 348 348 353 355 357 353 352 349 349 351 360 33 9 6 8 9 11 12 21 28 27 247 232 236 246 265 264 264 268
309 317 318 317 314 313 317 325 329 331 332 334 335 340 342 344 348 353 358 358 355 351 347 347 353 18 360 355 357 0 4 6 14 22 27 27 344 266 269 275 274 273 274
308 312 314 314 313 313 317 324 327 329 332 332 332 335 338 341 343 348 354 357 359 355 349 344 340 341 340 341 347 353 356 358 3 8 9 12 6 10 7 339 313 299 293
313 311 311 310 311 314 317 322 327 331 333 334 335 335 338 339 342 344 347 351 354 357 353 345 337 326 320 322 330 338 343 347 349 350 348 343 338 338 344 341 336 333 333
315 309 308 309 311 313 316 320 327 332 335 336 335 335 337 339 340 341 340 343 346 348 352 350 343 334 324 314 313 323 329 331 334 335 333 328 324 323 326 325 324 322 321
318 313 309 309 309 311 313 317 325 332 333 335 336 337 337 339 339 340 338 335 338 341 341 343 344 341 334 327 315 308 314 322 325 327 327 324 322 320 320 317 320 320 320
318 318 309 307 307 306 309 313 321 328 330 334 336 337 339 340 341 340 339 336 330 332 334 333 333 334 333 329 323 317 308 302 303 313 318 318 317 316 315 313 314 317 317
321 320 313 304 301 301 307 312 316 321 325 331 333 336 338 340 341 341 339 337 332 325 324 327 325 324 323 322 320 317 314 311 308 306 308 310 311 311 310 310 310 312 313